STARLINK-32922, 62926

Orbit data source: Space-Track

STARLINK-32922, 62926 is a payload satellite owned by SpaceX/Seattle (US) in LEO that was launched on Sat, 08 Feb 2025 UTC via an FALCON 9 launch vehicle from the Air Force Eastern Test Range (AFETR). Payload-class satellites include a variety of spacecraft equipped with specific instruments for various scientific and technological missions. These include communications satellites like Starlink; space stations such as the ISS; scientific satellites like the Hubble; Earth observation satellites from companies like Planet Labs, Umbra, and HawkEye 360; GPS; miniature CubeSats for education and research; and military/defense satellites.

Loading next visibility...
Identifier
62926, 2025-027V
Orbit
LEO
Country
Flag of USUS
Related business
Manufacturer
SpaceX/Seattle
Mission
Operational Commercial Communications
Bus & Motor
STARLINK V2M, Unknown motor
Mass
730 kg wet, ~700 kg dry
Launch date (UTC)
2025-02-08 (8 months ago)
Launch vehicle
FALCON 9
Launch site
Air Force Eastern Test Range (AFETR)
Object type
Payload
Rocket body
Debris
Shape & HBR
Box + 2 Pan, 17.7 m
Radar Cross Section
33.884 m², Large (>1 m²)

Expand to show TLE details & history
Last TLE update: 10 hours ago

TLE from 10 hours ago
0 STARLINK-32922
1 62926U 25027V   25294.43710789  .00061734  00000-0  22337-2 0  9992
2 62926  43.0041 195.4462 0001417 277.6320  82.4371 15.27587837 40248
Epoch: 2025-10-21T10:29Z
TLE epoch observation values (Epoch: 2025-10-21T10:29:26.121Z)
Latitude
-0.00001°
Longitude
7.96227°
Altitude
482.674 km
Speed
7.626 km/s
True Right ascension
13h 01m 47s
True Declination
0° 00' 00"
Sunlit
Object was in daylight at epoch
Visualization orbit readout
Latitude
Unknown
Longitude
Unknown
Altitude
Unknown
Speed
Unknown
Apparent Right ascension
Unknown
Apparent Declination
Unknown
Sunlit
N/A
Visualization observer readout
Local Sidereal Time
15:58:46
Azimuth
Unknown
Elevation
Unknown
Doppler factor
Unknown
Orbital elements
Apogee altitude
485.943 km
Perigee altitude
483.998 km
Semi-major axis
6,863.107 km
Eccentricity
0.00014
Inclination
43.0041°
RAAN
195.4462°
Arg. of periapsis
277.632°
True anomaly
82.4532°
Mean anomaly
82.4371°
Eccentric anomaly
82.44515°
Mean motion
3.81735 °/min
Orbital period
94.31 mins
BSTAR
0.0022337
Loading maneuver chart data...
Computing Atmospheric mass density...
Loading historical data...
Loading historical data...
Loading historical data...
Loading historical data...
Loading historical data...
Loading historical data...
Loading historical data...

Documentation

Showing up to 5 results
|